Location: Hall+in+Tirol
(47.2830°N, 11.5170°E)
Time: 09:40:33
(UTC+02:00)

Amateur Radio Satellites - All Passes

Search period start: 18 September 2014 09:10
Search period end: 19 September 2014 09:10
Location: Hall+in+Tirol, 47.2830°N, 11.5170°E

Satellite Date Start Highest point End Downlink Frequencies (MHz)
Time Altitude Azimuth
SO-67 18 Sep 09:26:13 09:28:50 20° 293° (WNW) 09:31:27 435.3500 MHz FM
ISS 18 Sep 09:31:33 09:34:53 77° 207° (SSW) 09:38:12 145.800 FM
HO-68 18 Sep 09:37:23 09:43:52 35° 96° (E) 09:50:19 435.675 MHz FM
UKube-1 18 Sep 09:52:34 09:55:35 18° 92° (E) 09:58:36 145.840 MHz, 145.915 MHz
UOSAT-12 18 Sep 10:15:15 10:19:47 46° 240° (WSW) 10:24:14 437.025 FM, 437.400 FM
MaSat-1 18 Sep 10:30:16 10:35:03 42° 307° (NW) 10:39:42 437.345 MHz
RS-15 18 Sep 10:45:49 10:55:26 33° 12° (NNE) 11:05:15 29.354 - 29.394 USB, Beacon 29.352 USB
FUNcube-1 18 Sep 10:57:54 11:01:57 29° 94° (E) 11:05:57 145.950 - 145.970 MHz USB
ISS 18 Sep 11:09:17 11:11:08 14° 225° (SW) 11:13:00 145.800 FM
Oscar 11 18 Sep 11:12:50 11:17:14 89° 104° (ESE) 11:21:34 145.825 FM, Beacon 2401.500 USB
HO-68 18 Sep 11:24:54 11:31:50 54° 295° (WNW) 11:38:44 435.675 MHz FM
UKube-1 18 Sep 11:27:51 11:32:05 51° 290° (WNW) 11:36:18 145.840 MHz, 145.915 MHz
PCSat 18 Sep 11:56:35 11:59:22 14° 103° (ESE) 12:02:10 145.825 MHz
Oscar 16 18 Sep 12:09:50 12:12:33 14° 55° (NE) 12:15:15 437.025 USB, Beacon 2401.1428
MaSat-1 18 Sep 12:12:00 12:13:04 11° 327° (NNW) 12:14:07 437.345 MHz
JAS-1B 18 Sep 12:25:24 12:30:39 20° 54° (NE) 12:35:23 435.800 - 435.900 CW/SSB
FUNcube-1 18 Sep 12:34:09 12:38:22 35° 292° (WNW) 12:42:33 145.950 - 145.970 MHz USB
AO-Echo 18 Sep 12:38:41 12:39:36 11° 54° (NE) 12:40:31 ?
ITAMSAT 1 18 Sep 12:49:42 12:52:21 14° 55° (NE) 12:55:01 435.822 SSB
Oscar 11 18 Sep 12:51:01 12:52:44 12° 302° (WNW) 12:54:27 145.825 FM, Beacon 2401.500 USB
Uribyol 2 18 Sep 12:53:49 12:56:55 16° 56° (NE) 13:00:01 436.500 FM
RS-15 18 Sep 12:59:31 13:10:28 62° 43° (NE) 13:21:47 29.354 - 29.394 USB, Beacon 29.352 USB
Oscar 19 18 Sep 13:07:53 13:12:41 39° 66° (ENE) 13:17:30 437.125 CW, 437.150 USB
Sapphire 18 Sep 13:09:34 13:14:47 51° 116° (ESE) 13:20:02 437.095 MHz 1200 baud AX-25 AFSK
HO-68 18 Sep 13:14:44 13:18:00 14° 317° (NW) 13:21:17 435.675 MHz FM
AO-27 18 Sep 13:22:19 13:26:31 26° 62° (ENE) 13:30:44 436.795 MHz FM
PCSat 18 Sep 13:36:33 13:41:58 87° 122° (ESE) 13:47:26 145.825 MHz
Oscar 16 18 Sep 13:45:55 13:51:06 83° 74° (ENE) 13:56:21 437.025 USB, Beacon 2401.1428
AO-7 18 Sep 14:04:37 14:09:47 19° 41° (NE) 14:14:57 29.400 - 29.500 MHz
Gurwin Techsat 1B 18 Sep 14:05:08 14:09:40 30° 63° (ENE) 14:14:13 435.225 FM
JAS-1B 18 Sep 14:11:52 14:20:27 78° 72° (ENE) 14:27:35 435.800 - 435.900 CW/SSB
AO-Echo 18 Sep 14:12:50 14:17:33 70° 73° (ENE) 14:22:14 ?
ITAMSAT 1 18 Sep 14:25:54 14:31:04 82° 74° (ENE) 14:36:16 435.822 SSB
Uribyol 2 18 Sep 14:30:32 14:35:42 86° 255° (WSW) 14:40:56 436.500 FM
TMSAT-1 18 Sep 14:42:40 14:47:40 44° 68° (ENE) 14:52:41 436.925 FM
Oscar 19 18 Sep 14:47:29 14:52:05 32° 265° (W) 14:56:44 437.125 CW, 437.150 USB
Sapphire 18 Sep 14:53:35 14:58:27 33° 317° (NW) 15:03:21 437.095 MHz 1200 baud AX-25 AFSK
AO-27 18 Sep 15:00:45 15:05:45 50° 260° (W) 15:10:49 436.795 MHz FM
RS-15 18 Sep 15:12:14 15:22:37 49° 248° (WSW) 15:33:25 29.354 - 29.394 USB, Beacon 29.352 USB
PCSat 18 Sep 15:21:51 15:26:06 23° 324° (NW) 15:30:22 145.825 MHz
Uosat F 18 Sep 15:22:39 15:26:21 21° 60° (ENE) 15:30:04 435.120 FM
Oscar 16 18 Sep 15:28:19 15:31:08 15° 272° (W) 15:33:57 437.025 USB, Beacon 2401.1428
Gurwin Techsat 1B 18 Sep 15:44:24 15:49:27 44° 262° (W) 15:54:33 435.225 FM
AO-7 18 Sep 15:52:53 16:01:01 62° 64° (ENE) 16:09:10 29.400 - 29.500 MHz
AO-Echo 18 Sep 15:54:13 15:56:51 15° 271° (W) 15:59:29 ?
JAS-1B 18 Sep 16:04:49 16:11:30 25° 268° (W) 16:17:26 435.800 - 435.900 CW/SSB
ITAMSAT 1 18 Sep 16:08:27 16:11:13 14° 272° (W) 16:14:00 435.822 SSB
Uribyol 2 18 Sep 16:13:54 16:15:58 12° 274° (W) 16:18:03 436.500 FM
TMSAT-1 18 Sep 16:23:14 16:27:45 28° 266° (W) 16:32:18 436.925 FM
Sapphire 18 Sep 16:41:44 16:43:39 12° 341° (NNW) 16:45:34 437.095 MHz 1200 baud AX-25 AFSK
JAS-2 18 Sep 16:45:04 16:48:36 19° 58° (ENE) 16:52:08 435.800 - 435.900 CW/SSB, 435.910 FM
Uosat F 18 Sep 16:59:48 17:04:44 60° 258° (WSW) 17:09:42 435.120 FM
MaSat-1 18 Sep 17:07:51 17:10:34 17° 40° (NE) 17:13:04 437.345 MHz
Saudisat 1A 18 Sep 17:30:34 17:33:55 22° 114° (ESE) 17:37:17 436.775 MHz
Hamsat 18 Sep 17:31:10 17:35:05 33° 68° (ENE) 17:39:01 145.90 MHz
AO-7 18 Sep 17:46:52 17:54:15 35° 264° (W) 18:01:41 29.400 - 29.500 MHz
OPAL 18 Sep 17:52:35 17:57:38 50° 102° (ESE) 18:02:36 ?
JAS-2 18 Sep 18:28:00 18:33:15 67° 258° (WSW) 18:38:26 435.800 - 435.900 CW/SSB, 435.910 FM
SO-67 18 Sep 18:29:33 18:31:52 17° 65° (ENE) 18:34:12 435.3500 MHz FM
MaSat-1 18 Sep 18:43:54 18:47:55 66° 244° (WSW) 18:51:19 437.345 MHz
KITSAT 1 18 Sep 18:53:23 18:58:46 20° 102° (ESE) 19:04:08 435.175 FM
PCSat 18 Sep 18:56:25 18:57:52 11° 16° (NNE) 18:59:20 145.825 MHz
Hamsat 18 Sep 19:07:21 19:11:05 27° 266° (W) 19:14:49 145.90 MHz
Saudisat 1A 18 Sep 19:08:51 19:13:10 54° 313° (NW) 19:17:32 436.775 MHz
OPAL 18 Sep 19:31:57 19:36:15 27° 301° (WNW) 19:40:29 ?
SO-67 18 Sep 20:01:28 20:04:40 35° 263° (W) 20:07:53 435.3500 MHz FM
HO-68 18 Sep 20:09:24 20:15:50 38° 60° (ENE) 20:22:17 435.675 MHz FM
STRAND 1 18 Sep 20:09:47 20:14:56 73° 103° (ESE) 20:20:04 ?
Sapphire 18 Sep 20:11:30 20:15:32 21° 34° (NE) 20:19:32 437.095 MHz 1200 baud AX-25 AFSK
Oscar 11 18 Sep 20:37:18 20:39:26 14° 59° (ENE) 20:41:35 145.825 FM, Beacon 2401.500 USB
PCSat 18 Sep 20:38:28 20:43:12 29° 41° (NE) 20:47:54 145.825 MHz
KITSAT 1 18 Sep 20:44:53 20:52:58 82° 122° (ESE) 21:01:06 435.175 FM
UKube-1 18 Sep 20:51:01 20:54:32 25° 64° (ENE) 20:58:03 145.840 MHz, 145.915 MHz
Saudisat 1A 18 Sep 20:51:15 20:53:43 15° 334° (NNW) 20:56:11 436.775 MHz
Oscar 10/S400 18 Sep 21:14:00 21:39:00 52° 178° (S) 05:20:53 145.825 - 145.975 CW/USB, Beacon 145.810 USB
AO-40 18 Sep 21:40:27 03:39:16 36° 178° (S) 06:06:51 Beacon 2401.320
STRAND 1 18 Sep 21:50:06 21:53:36 19° 302° (WNW) 21:57:05 ?
Sapphire 18 Sep 21:54:20 21:59:49 81° 56° (NE) 22:05:15 437.095 MHz 1200 baud AX-25 AFSK
HO-68 18 Sep 21:56:28 22:03:22 51° 260° (W) 22:10:19 435.675 MHz FM
FUNcube-1 18 Sep 21:57:20 22:01:18 33° 67° (ENE) 22:05:22 145.950 - 145.970 MHz USB
Oscar 11 18 Sep 22:10:39 22:15:01 80° 257° (WSW) 22:19:26 145.825 FM, Beacon 2401.500 USB
PCSat 18 Sep 22:21:38 22:27:00 61° 242° (WSW) 22:32:19 145.825 MHz
UKube-1 18 Sep 22:26:31 22:30:33 38° 262° (W) 22:34:38 145.840 MHz, 145.915 MHz
KITSAT 1 18 Sep 22:42:00 22:49:15 35° 326° (NNW) 22:56:32 435.175 FM
SO-50 18 Sep 22:45:12 22:48:56 26° 115° (ESE) 22:52:44 436.795 FM
FUNcube-1 18 Sep 23:33:53 23:37:43 29° 266° (W) 23:41:39 145.950 - 145.970 MHz USB
Sapphire 18 Sep 23:39:07 23:42:33 17° 255° (WSW) 23:45:59 437.095 MHz 1200 baud AX-25 AFSK
Saudisat 1A 19 Sep 00:14:41 00:16:53 13° 24° (NNE) 00:19:05 436.775 MHz
SO-50 19 Sep 00:24:53 00:29:15 48° 315° (NW) 00:33:46 436.795 FM
UOSAT-12 19 Sep 00:29:42 00:33:31 26° 114° (ESE) 00:37:23 437.025 FM, 437.400 FM
KITSAT 1 19 Sep 00:41:44 00:47:27 20° 355° (N) 00:53:10 435.175 FM
Saudisat 1A 19 Sep 01:53:15 01:57:32 47° 46° (NE) 02:01:48 436.775 MHz
Oscar 16 19 Sep 01:55:09 01:59:15 23° 92° (E) 02:03:19 437.025 USB, Beacon 2401.1428
JAS-1B 19 Sep 01:56:37 01:58:50 12° 85° (E) 02:01:01 435.800 - 435.900 CW/SSB
SO-50 19 Sep 02:08:26 02:10:58 14° 337° (NNW) 02:13:31 436.795 FM
UOSAT-12 19 Sep 02:08:51 02:13:24 51° 314° (NW) 02:18:02 437.025 FM, 437.400 FM
AO-Echo 19 Sep 02:17:29 02:20:43 18° 91° (E) 02:23:59 ?
ITAMSAT 1 19 Sep 02:36:13 02:40:21 23° 92° (E) 02:44:27 435.822 SSB
KITSAT 1 19 Sep 02:39:19 02:46:00 27° 25° (NNE) 02:52:40 435.175 FM
Uribyol 2 19 Sep 02:40:32 02:44:56 27° 94° (E) 02:49:19 436.500 FM
Oscar 19 19 Sep 02:55:04 03:00:17 73° 103° (ESE) 03:05:25 437.125 CW, 437.150 USB
TMSAT-1 19 Sep 02:56:51 02:59:24 13° 87° (E) 03:01:56 436.925 FM
AO-27 19 Sep 03:10:23 03:15:24 46° 99° (E) 03:20:24 436.795 MHz FM
RS-15 19 Sep 03:30:46 03:38:31 23° 100° (E) 03:46:11 29.354 - 29.394 USB, Beacon 29.352 USB
Saudisat 1A 19 Sep 03:33:15 03:36:54 25° 245° (WSW) 03:40:31 436.775 MHz
OPAL 19 Sep 03:33:30 03:37:20 21° 57° (ENE) 03:41:12 ?
Oscar 16 19 Sep 03:33:52 03:38:55 52° 291° (WNW) 03:43:54 437.025 USB, Beacon 2401.1428
JAS-1B 19 Sep 03:44:43 03:50:38 88° 106° (ESE) 03:56:19 435.800 - 435.900 CW/SSB
UOSAT-12 19 Sep 03:51:53 03:54:39 15° 336° (NNW) 03:57:26 437.025 FM, 437.400 FM
ISS 19 Sep 03:52:16 03:55:20 35° 144° (SE) 03:58:25 145.800 FM
AO-7 19 Sep 03:53:03 03:57:14 15° 85° (E) 04:01:23 29.400 - 29.500 MHz
AO-Echo 19 Sep 03:55:09 03:59:54 63° 288° (WNW) 04:04:46 ?
Gurwin Techsat 1B 19 Sep 03:57:01 04:02:17 58° 101° (E) 04:07:31 435.225 FM
ITAMSAT 1 19 Sep 04:15:05 04:20:09 53° 291° (WNW) 04:25:12 435.822 SSB
Uribyol 2 19 Sep 04:19:37 04:24:37 46° 292° (WNW) 04:29:35 436.500 FM
TMSAT-1 19 Sep 04:34:44 04:40:05 90° 298° (WNW) 04:45:23 436.925 FM
KITSAT 1 19 Sep 04:34:51 04:42:58 70° 51° (NE) 04:51:00 435.175 FM
Oscar 19 19 Sep 04:35:33 04:39:03 19° 302° (WNW) 04:42:33 437.125 CW, 437.150 USB
AO-27 19 Sep 04:50:19 04:54:42 28° 297° (WNW) 04:59:06 436.795 MHz FM
Uosat F 19 Sep 05:04:27 05:08:58 33° 96° (E) 05:13:29 435.120 FM
OPAL 19 Sep 05:10:35 05:15:44 67° 255° (WSW) 05:20:58 ?
ISS 19 Sep 05:28:41 05:31:59 55° 343° (NNW) 05:35:16 145.800 FM
SO-50 19 Sep 05:33:05 05:36:12 17° 27° (NNE) 05:39:20 436.795 FM
JAS-2 19 Sep 05:33:49 05:36:44 14° 88° (E) 05:39:47 435.800 - 435.900 CW/SSB, 435.910 FM
JAS-1B 19 Sep 05:36:57 05:40:28 17° 308° (NW) 05:43:53 435.800 - 435.900 CW/SSB
Gurwin Techsat 1B 19 Sep 05:37:45 05:41:52 24° 300° (WNW) 05:45:59 435.225 FM
RS-15 19 Sep 05:38:06 05:49:07 82° 123° (ESE) 06:00:04 29.354 - 29.394 USB, Beacon 29.352 USB
AO-7 19 Sep 05:43:18 05:51:35 69° 105° (ESE) 05:59:50 29.400 - 29.500 MHz
STRAND 1 19 Sep 05:51:28 05:55:19 22° 60° (ENE) 05:59:12 ?
TMSAT-1 19 Sep 06:16:10 06:19:16 16° 304° (NW) 06:22:23 436.925 FM
KITSAT 1 19 Sep 06:30:54 06:37:48 32° 252° (WSW) 06:44:41 435.175 FM
Uosat F 19 Sep 06:43:13 06:47:47 36° 294° (WNW) 06:52:20 435.120 FM
Hamsat 19 Sep 06:49:18 06:53:23 42° 98° (E) 06:57:24 145.90 MHz
ISS 19 Sep 07:05:56 07:09:05 37° 3° (N) 07:12:13 145.800 FM
SO-50 19 Sep 07:12:57 07:17:42 61° 49° (NE) 07:22:31 436.795 FM
UOSAT-12 19 Sep 07:16:06 07:19:03 16° 26° (NNE) 07:21:59 437.025 FM, 437.400 FM
JAS-2 19 Sep 07:16:39 07:22:32 79° 104° (ESE) 07:29:12 435.800 - 435.900 CW/SSB, 435.910 FM
SO-67 19 Sep 07:23:07 07:24:44 13° 90° (E) 07:26:21 435.3500 MHz FM
STRAND 1 19 Sep 07:29:07 07:34:08 58° 259° (W) 07:39:11 ?
AO-7 19 Sep 07:36:42 07:43:52 34° 307° (NW) 07:51:01 29.400 - 29.500 MHz
RS-15 19 Sep 07:52:24 08:02:38 42° 331° (NNW) 08:12:57 29.354 - 29.394 USB, Beacon 29.352 USB
Hamsat 19 Sep 08:25:50 08:29:05 22° 296° (WNW) 08:32:18 145.90 MHz
MaSat-1 19 Sep 08:32:18 08:36:34 28° 108° (ESE) 08:40:46 437.345 MHz
ISS 19 Sep 08:42:46 08:46:06 75° 23° (NNE) 08:49:26 145.800 FM
SO-50 19 Sep 08:54:14 08:57:54 22° 247° (WSW) 09:01:36 436.795 FM
SO-67 19 Sep 08:54:42 08:58:02 45° 287° (WNW) 09:01:20 435.3500 MHz FM
UOSAT-12 19 Sep 08:55:32 09:00:14 56° 47° (NE) 09:04:50 437.025 FM, 437.400 FM
